This is the latest recevied weather packets stored in our database for station/object DC2ML-11. If no packets are shown the sender has not sent any weather packets the latest 10 day(s).
| Time | Temp. | Humidity | Pressure | Rain* | Wind** | Luminosity | Snow |
|---|---|---|---|---|---|---|---|
| 1777642897 | 20° C | 36% | 1024.6 hPa | - | - | - | - |
| 1777641997 | 20° C | 36% | 1024.9 hPa | - | - | - | - |
| 1777641097 | 20° C | 36% | 1025.1 hPa | - | - | - | - |
| 1777640197 | 19.44° C | 36% | 1025.2 hPa | - | - | - | - |
| 1777639297 | 19.44° C | 37% | 1025.4 hPa | - | - | - | - |
| 1777638397 | 18.89° C | 37% | 1025.6 hPa | - | - | - | - |
| 1777637495 | 18.89° C | 37% | 1025.8 hPa | - | - | - | - |
| 1777636595 | 18.33° C | 36% | 1026 hPa | - | - | - | - |
| 1777635695 | 18.33° C | 35% | 1026 hPa | - | - | - | - |
| 1777634795 | 18.89° C | 35% | 1026.2 hPa | - | - | - | - |
| 1777633895 | 18.33° C | 36% | 1026.4 hPa | - | - | - | - |
| 1777632995 | 17.78° C | 36% | 1026.6 hPa | - | - | - | - |
| 1777632095 | 17.78° C | 36% | 1026.7 hPa | - | - | - | - |
| 1777631195 | 17.78° C | 37% | 1026.9 hPa | - | - | - | - |
| 1777630295 | 17.78° C | 36% | 1027.1 hPa | - | - | - | - |
| 1777629395 | 17.22° C | 37% | 1027.4 hPa | - | - | - | - |
| 1777628495 | 17.22° C | 38% | 1027.6 hPa | - | - | - | - |
| 1777627594 | 16.67° C | 38% | 1027.8 hPa | - | - | - | - |
| 1777626694 | 16.67° C | 37% | 1027.6 hPa | - | - | - | - |
| 1777625797 | 16.67° C | 37% | 1027.7 hPa | - | - | - | - |
| 1777624897 | 16.67° C | 38% | 1027.7 hPa | - | - | - | - |
| 1777623997 | 16.11° C | 38% | 1027.8 hPa | - | - | - | - |
| 1777623097 | 16.11° C | 38% | 1027.9 hPa | - | - | - | - |
| 1777622197 | 16.11° C | 39% | 1028 hPa | - | - | - | - |
| 1777621297 | 16.11° C | 39% | 1028 hPa | - | - | - | - |
* Rain since midnight (hover to see other rain measurements)
** Current wind speed in m/s (hover to see current wind gust speed)